STARLINK-35337, 65831

Orbit data source: Space-Track

STARLINK-35337, 65831 is a payload satellite owned by SpaceX/Seattle (US) in LEO that was launched on Mon, 29 Sep 2025 UTC via an FALCON 9 launch vehicle from the Air Force Western Test Range (AFWTR). Payload-class satellites include a variety of spacecraft equipped with specific instruments for various scientific and technological missions. These include communications satellites like Starlink; space stations such as the ISS; scientific satellites like the Hubble; Earth observation satellites from companies like Planet Labs, Umbra, and HawkEye 360; GPS; miniature CubeSats for education and research; and military/defense satellites.

Loading next visibility...
Identifier
65831, 2025-221J
Orbit
LEO
Country
Flag of USUS
Related business
Manufacturer
SpaceX/Seattle
Mission
Operational Commercial Communications
Bus & Motor
STARLINK V2MO, Unknown motor
Mass
575 kg wet, ~530 kg dry
Launch date (UTC)
2025-09-29 (2 months ago)
Launch vehicle
FALCON 9
Launch site
Air Force Western Test Range (AFWTR)
Object type
Payload
Rocket body
Debris
Shape & HBR
Box + 2 Pan, 17.7 m
Radar Cross Section
36.964 m²

Expand to show TLE details & history
Last TLE update: 23 hours ago

TLE from 23 hours ago
0 STARLINK-35337
1 65831U 25221J   25340.22054051  .00049153  00000-0  16605-2 0  9990
2 65831  53.1581 162.4408 0001674  88.5650 271.5543 15.30205068 11776
Epoch: 2025-12-06T05:17Z
TLE epoch observation values (Epoch: 2025-12-06T05:17:34.700Z)
Latitude
0.00004°
Longitude
7.79484°
Altitude
476.069 km
Speed
7.629 km/s
True Right ascension
10h 49m 45s
True Declination
0° 00' 00"
Sunlit
Object was in daylight at epoch
Visualization orbit readout
Latitude
Unknown
Longitude
Unknown
Altitude
Unknown
Speed
Unknown
Apparent Right ascension
Unknown
Apparent Declination
Unknown
Sunlit
N/A
Visualization observer readout
Local Sidereal Time
02:18:03
Azimuth
Unknown
Elevation
Unknown
Doppler factor
Unknown
Orbital elements
Apogee altitude
476.604 km
Perigee altitude
474.309 km
Semi-major axis
6,853.594 km
Eccentricity
0.00017
Inclination
53.1581°
RAAN
162.4408°
Arg. of periapsis
88.565°
True anomaly
271.53512°
Mean anomaly
271.5543°
Eccentric anomaly
271.54471°
Mean motion
3.8253 °/min
Orbital period
94.11 mins
BSTAR
0.0016605
Loading maneuver chart data...
Computing Atmospheric mass density...
Loading historical data...
Loading historical data...
Loading historical data...
Loading historical data...
Loading historical data...
Loading historical data...
Loading historical data...

Documentation

Showing up to 5 results
|